EHI
4 5 5 5 6 6 6 7 7 6 5 3 1 0 0 0 0 0 1 3 6 6 4 5 4 3 2 2 1 0 0 0 0 0 0 1 1 1 1 1 0 0 0
4 4 4 4 4 5 6 6 6 5 4 3 1 0 0 0 0 0 0 2 5 6 5 5 6 4 4 3 1 0 1 1 1 1 1 0 1 1 2 1 1 0 0
3 3 3 3 3 4 5 5 3 2 2 1 1 0 0 0 0 0 0 1 3 4 4 5 6 6 5 3 2 2 2 2 2 3 2 1 1 1 1 1 1 1 0
3 3 3 3 3 3 4 3 1 0 0 0 0 0 0 0 0 0 0 0 0 1 2 3 4 5 5 4 3 3 3 2 2 3 3 2 2 1 0 1 1 1 0
3 3 3 3 3 3 2 1 0 0 0 0 0 0 0 0 0 0 0 0 0 0 0 1 1 2 4 4 3 3 3 2 1 2 2 1 1 0 0 0 0 0 0
3 3 3 3 2 1 1 0 0 0 0 0 0 0 0 0 0 0 0 0 0 0 0 0 0 0 1 2 3 3 3 2 2 1 1 0 0 0 0 0 0 0 0
3 3 3 3 1 0 0 0 0 0 0 0 0 0 0 0 0 0 0 0 0 0 0 0 0 0 0 1 2 3 2 1 1 1 0 0 0 0 0 0 0 0 0
2 3 3 2 1 0 0 0 0 0 0 0 0 0 0 0 0 0 0 0 0 0 0 0 0 0 0 0 0 1 1 0 0 0 0 1 0 0 0 0 0 0 0
1 1 2 2 1 0 0 0 0 0 0 0 0 0 0 0 0 0 0 0 0 0 0 0 0 0 0 0 0 0 0 0 0 0 0 0 0 0 0 0 0 0 0
1 1 1 1 0 0 0 0 0 0 0 0 0 0 0 0 0 0 0 0 0 0 0 0 0 0 0 0 0 0 0 0 0 0 0 0 0 0 0 0 0 0 0
2 2 1 1 1 0 0 0 0 0 0 0 0 0 0 0 0 0 0 0 0 0 0 0 0 0 0 0 0 0 0 0 0 0 0 0 0 0 0 0 0 0 0
3 3 3 2 2 1 1 1 1 0 0 0 0 0 0 0 0 0 0 0 0 0 0 0 0 0 0 0 0 0 0 0 0 0 0 0 0 0 0 0 0 0 0
3 3 3 3 3 3 2 2 2 1 1 0 0 0 0 0 0 0 0 0 0 0 0 0 0 0 0 0 0 0 0 0 0 0 0 0 0 1 1 1 0 0 0
3 3 3 3 3 3 3 3 3 3 2 1 1 1 0 0 0 0 0 0 0 0 0 0 0 0 0 0 0 0 0 0 0 0 0 0 0 1 2 2 1 0 0
3 3 3 3 3 3 3 3 3 3 3 3 2 2 1 0 0 0 0 0 0 0 0 0 0 0 0 0 0 0 0 0 0 0 0 0 0 0 1 1 0 0 0
3 3 3 3 3 3 3 3 3 3 3 2 2 2 1 0 0 0 0 0 0 0 0 0 0 0 0 0 0 0 0 0 0 0 0 0 0 0 0 0 0 0 0
3 3 2 3 3 3 3 3 3 2 1 1 1 1 0 0 0 0 0 0 0 0 0 0 0 0 0 0 0 0 0 0 0 0 0 0 0 0 0 0 0 0 0
2 1 1 1 2 3 3 3 3 2 1 2 2 1 1 0 0 0 0 0 0 0 0 0 0 0 0 0 0 0 0 0 0 0 0 0 0 0 0 0 0 0 0
1 0 0 0 1 1 2 3 3 2 2 2 1 2 2 1 0 0 0 0 0 0 0 0 0 0 0 0 0 0 0 0 0 0 0 0 0 0 0 0 0 0 0
1 0 0 0 0 0 1 1 2 2 1 1 0 1 1 1 0 0 0 0 0 0 0 0 0 0 0 0 0 0 0 0 0 0 0 0 0 0 0 0 0 0 0
1 0 0 0 0 0 0 0 1 1 0 0 0 0 0 0 0 0 0 0 0 0 0 0 0 0 0 0 0 0 0 0 0 0 0 0 0 0 0 0 0 0 0
1 0 0 0 0 0 0 0 0 0 0 0 0 0 0 0 0 0 0 0 0 0 0 0 0 0 0 0 0 0 0 0 0 0 0 0 0 0 0 0 0 0 0
0 0 0 0 0 0 0 0 0 0 0 0 0 0 0 0 0 0 0 0 0 0 0 0 0 0 0 0 0 0 0 0 0 0 0 0 0 0 0 0 0 0 0
0 0 0 0 0 0 0 0 0 0 0 0 0 0 0 0 0 0 0 0 0 0 0 0 0 0 0 0 0 0 0 0 0 0 0 0 0 0 0 0 0 0 0
0 0 0 0 0 0 0 0 0 0 0 0 0 0 0 0 0 0 0 0 0 0 0 0 0 0 0 0 0 0 0 0 0 0 0 0 0 0 0 0 0 0 0
0 0 0 0 0 0 0 0 0 0 0 0 0 0 0 0 0 0 0 0 0 0 0 0 0 0 0 0 0 0 0 0 0 0 0 0 0 0 0 0 0 0 0
Wind_Speed
2 2 1 1 2 2 2 2 2 2 2 2 1 1 1 1 1 1 1 3 3 4 5 6 6 8 8 7 7 7 7 7 8 7 7 6 6 6 6 6 6 6 6
2 3 2 2 2 2 2 2 2 2 1 1 1 1 1 1 1 1 1 1 3 3 4 4 5 6 7 7 7 7 7 8 8 7 7 6 6 6 6 6 6 6 7
2 2 2 2 2 2 2 2 2 2 1 1 1 1 0 0 0 1 0 0 1 2 3 4 4 5 5 6 7 7 7 7 8 8 8 7 7 7 6 6 6 6 6
3 2 2 1 2 2 2 2 2 2 1 1 1 0 0 0 1 1 1 1 1 1 1 3 4 4 5 5 6 7 7 7 8 9 9 8 8 8 7 6 6 6 6
3 3 2 2 2 2 2 2 2 2 1 1 1 0 0 0 0 1 1 1 1 1 1 2 3 4 5 5 5 6 7 7 8 8 9 9 9 8 7 6 6 6 6
3 3 2 2 3 2 2 2 2 1 1 1 1 1 1 0 0 1 1 1 1 1 1 1 1 3 4 5 5 6 6 7 7 8 8 9 8 8 7 7 7 7 7
3 3 2 2 3 3 3 3 2 2 1 1 2 1 2 1 1 1 1 1 1 1 1 1 1 1 2 3 4 5 6 6 6 7 7 7 8 8 8 8 8 8 8
3 3 3 2 3 2 3 3 3 2 1 1 2 1 1 2 2 1 1 1 1 1 2 2 2 2 2 2 3 6 5 6 6 7 6 7 7 8 9 10 10 10 9
3 3 3 3 3 3 3 3 4 4 2 1 1 3 2 2 1 1 1 1 1 1 2 2 3 3 3 3 3 5 7 6 7 8 7 6 6 8 9 10 10 10 10
2 2 3 3 3 3 3 3 3 3 3 2 1 1 2 3 2 1 1 1 2 2 2 2 3 4 4 3 4 6 7 7 8 8 8 7 7 7 9 10 10 11 11
1 2 2 3 3 3 3 3 3 3 3 3 3 2 2 1 1 2 2 2 1 2 2 3 3 3 3 3 3 5 7 7 7 8 8 8 8 8 9 9 10 10 11
1 2 2 3 3 3 3 4 3 4 3 4 3 3 3 3 3 3 3 2 2 2 2 2 3 3 3 3 5 6 6 6 6 7 7 8 8 8 9 9 9 9 10
2 3 2 2 3 3 3 3 3 4 4 4 4 3 3 3 2 3 3 2 2 2 2 2 3 3 3 3 4 6 5 6 6 7 7 7 8 8 9 9 9 9 9
3 3 3 3 3 3 3 3 2 3 3 4 4 3 3 3 3 3 3 3 2 2 2 3 2 3 3 3 4 5 4 6 7 7 7 8 8 8 9 8 8 8 8
3 2 3 3 3 3 3 3 3 3 3 3 3 3 3 3 3 3 3 4 4 3 3 3 2 2 2 2 4 3 4 6 7 7 7 7 8 8 8 8 8 8 8
2 2 2 3 3 3 3 3 3 3 3 3 2 3 3 3 3 3 3 3 4 4 3 3 3 2 2 2 3 3 4 6 7 7 6 7 8 8 8 9 9 9 9
3 3 3 3 3 3 3 3 3 3 4 3 3 3 4 3 2 3 3 3 3 3 3 3 2 2 2 2 2 2 2 3 3 5 5 6 6 7 7 8 8 9 9
3 3 3 3 3 3 3 4 4 4 4 4 4 4 4 3 3 3 3 3 3 4 3 3 2 1 2 2 2 2 2 2 2 3 4 4 5 6 7 8 8 9 9
3 3 3 3 3 3 3 4 4 4 4 5 5 5 5 4 3 3 3 3 3 3 3 3 2 1 1 1 1 1 1 1 2 2 3 4 5 6 6 7 8 9 9
4 3 3 3 4 4 4 4 4 4 4 4 4 5 5 5 5 4 3 4 3 3 2 2 2 1 1 1 1 1 1 1 2 2 2 2 3 4 5 6 7 8 9
3 3 3 3 3 3 4 4 4 4 4 4 4 4 5 5 6 5 4 4 4 3 2 2 2 1 2 1 2 2 2 2 2 1 2 2 2 2 3 5 6 7 8
2 2 3 3 3 3 4 5 5 4 4 4 4 4 4 4 5 5 5 5 6 5 4 3 3 3 3 3 2 2 2 1 2 1 1 3 2 2 3 3 4 5 7
2 2 3 3 3 3 4 5 6 4 4 4 4 3 3 3 3 3 3 3 4 5 6 5 5 5 4 4 3 3 3 3 3 2 1 3 2 3 3 3 4 5 5
2 3 3 3 3 3 4 5 5 4 3 4 4 4 4 3 3 3 2 2 2 3 5 5 5 5 4 4 4 4 3 2 2 2 2 2 2 2 3 2 3 4 4
2 3 2 3 3 3 3 3 4 2 2 3 4 4 4 4 4 4 3 2 2 3 3 4 4 4 4 4 3 2 2 2 2 2 2 2 2 2 2 2 2 2 3
3 3 3 3 3 3 4 4 4 3 3 3 2 3 4 4 4 4 4 3 4 3 2 1 1 2 2 2 3 4 4 3 2 2 2 3 2 1 2 1 1 1 2
Wind_Direction
134 120 107 102 104 104 109 113 112 115 111 99 97 116 128 149 168 183 216 214 213 208 208 201 194 192 192 189 186 183 177 179 178 180 181 184 186 188 187 190 191 190 188
140 133 125 121 124 127 123 124 133 130 122 117 108 105 141 145 164 194 229 227 219 211 212 203 196 196 199 194 190 191 190 193 190 189 189 191 193 197 196 193 194 196 195
147 142 142 144 147 135 123 113 106 103 116 118 106 98 104 139 187 249 258 266 255 225 210 197 191 189 197 201 201 200 199 199 198 199 201 203 202 200 202 198 197 198 198
152 141 145 160 145 130 126 128 123 112 108 115 113 56 49 146 248 257 255 254 260 257 211 192 192 191 193 202 208 208 208 205 204 207 209 210 210 205 203 201 201 201 200
156 150 160 165 147 133 131 139 120 134 132 127 142 107 33 250 274 262 248 244 237 226 213 199 203 205 206 206 211 216 214 211 212 213 214 212 209 206 205 205 206 208 208
164 157 161 161 153 146 147 142 142 128 130 138 104 66 6 305 18 239 241 242 229 215 202 209 208 220 222 220 218 220 220 217 216 216 215 214 210 205 207 205 211 215 214
162 160 163 160 163 169 176 163 144 132 118 118 94 28 0 10 356 278 242 228 229 226 206 213 214 219 231 233 229 230 228 224 218 216 217 215 210 205 205 203 213 219 216
168 168 165 168 171 165 165 165 156 141 146 129 132 106 11 348 340 333 283 226 234 230 235 232 221 216 224 232 231 231 230 228 226 224 223 218 212 209 209 209 214 218 217
169 166 172 169 177 180 185 184 174 167 174 175 157 150 159 215 292 317 298 264 243 231 245 246 234 229 228 226 230 235 234 232 232 231 231 226 221 218 216 216 219 221 221
177 172 171 175 184 190 192 196 185 178 172 187 185 188 176 157 162 284 307 287 264 239 241 240 238 239 234 231 234 240 242 239 233 232 231 229 229 227 226 224 224 226 227
199 189 181 182 190 197 200 198 189 189 189 190 185 173 162 134 160 174 252 287 289 260 242 235 231 236 240 236 236 240 240 237 237 233 233 235 234 231 229 228 226 227 228
232 222 194 193 198 200 202 203 200 196 199 197 194 184 174 173 185 180 211 247 269 275 263 248 235 232 237 237 239 239 238 236 235 232 234 236 236 233 231 229 226 224 225
224 233 213 207 207 209 201 191 197 204 200 198 202 205 202 201 178 170 181 222 255 280 285 263 243 239 240 236 242 239 234 233 235 236 237 237 237 234 232 231 230 227 225
220 219 213 214 215 208 199 188 193 206 199 205 211 205 206 212 195 187 185 184 230 273 267 263 261 239 237 234 240 246 241 235 237 239 240 240 237 235 233 230 230 228 225
215 209 205 210 211 205 196 185 196 204 197 207 209 206 212 218 211 211 202 194 191 228 259 254 249 245 238 240 246 244 242 242 242 240 241 241 240 238 234 231 229 227 224
208 202 207 207 208 203 194 188 198 203 196 208 203 207 223 227 222 215 210 207 198 200 235 247 241 257 251 252 255 250 249 254 249 244 244 241 240 239 233 230 228 225 221
205 207 208 205 203 202 198 195 206 199 205 219 216 213 230 230 226 221 207 199 201 195 219 257 255 267 250 256 276 267 263 256 251 242 242 242 240 238 234 232 230 227 221
215 214 208 205 206 202 196 199 215 212 211 220 223 218 233 226 225 226 216 213 211 205 204 238 264 271 262 264 263 269 273 262 262 257 248 245 248 249 242 236 232 229 224
216 214 203 207 213 207 205 208 209 213 216 220 218 216 225 216 224 224 216 216 216 207 199 208 242 252 265 272 283 286 277 283 280 271 254 250 254 254 247 241 237 232 229
209 214 211 213 216 214 213 212 208 209 215 225 225 220 219 212 218 219 218 218 208 196 191 196 223 249 255 257 225 242 275 277 282 294 292 277 270 259 252 247 241 235 230
216 216 212 216 220 217 218 213 210 210 215 229 234 228 221 217 220 215 214 208 196 192 191 199 218 228 242 239 231 223 243 277 279 270 280 281 272 266 259 252 242 234 229
215 210 218 220 226 231 225 214 208 211 215 222 233 239 233 225 229 227 226 214 197 195 199 203 217 226 241 237 223 217 223 249 270 255 258 275 246 255 259 254 252 236 230
200 214 226 220 230 245 227 216 213 203 211 222 227 229 235 233 221 222 234 230 223 217 204 200 217 229 229 221 209 218 216 222 245 259 246 270 254 255 260 265 258 240 231
202 214 226 225 229 249 233 218 211 207 214 224 225 222 222 232 223 207 213 227 243 244 230 218 222 233 236 226 214 216 216 221 251 255 218 252 266 266 279 273 268 244 236
222 226 225 223 230 258 250 225 200 201 219 236 235 225 216 224 226 193 182 210 247 266 254 227 230 240 241 234 206 181 189 202 252 258 208 227 255 276 280 275 275 261 245
230 231 238 233 229 245 248 226 197 192 212 236 246 234 220 218 214 191 188 199 226 251 258 272 273 272 261 244 210 203 205 210 227 251 211 208 232 242 275 271 270 268 258